Location: Moscow
(55.7500°N, 37.5830°E)
Time: 08:12:09
(UTC+03:00)

N. Korean satellite - Pass Details

Date: 23 October 2021
Orbit: 446 x 495 km, 97.3° (Epoch: 04 December)

Event Time Altitude Azimuth Distance (km) Brightness Sun altitude
Rises 05:51:30 0° 15° (NNE) 2,603 10.4 -12.6°
Reaches altitude 10° 05:53:37 10° 18° (NNE) 1,715 9.5 -12.3°
Maximum altitude 05:57:18 68° 103° (ESE) 542 7.0 -11.8°
Drops below altitude 10° 06:00:56 10° 186° (S) 1,691 9.3 -11.3°
Sets 06:03:00 0° 189° (S) 2,563 10.2 -11.0°
